Location: Unspecified
(42.3650°N, 71.1030°W)
Time: 10:07:11
(UTC+00:00)

Tiros 1 - Pass Details

Date: 27 June 2024
Orbit: 624 x 656 km, 48.4° (Epoch: 20 July)

Event Time Altitude Azimuth Distance (km) Brightness Sun altitude
Rises 02:07:34 0° 214° (SW) 2,890 10.3 -14.7°
Reaches altitude 10° 02:10:01 10° 206° (SSW) 1,985 9.4 -14.9°
Maximum altitude 02:14:09 34° 141° (SE) 1,018 7.6 -15.4°
Drops below altitude 10° 02:18:18 10° 76° (ENE) 1,995 9.5 -15.8°
Sets 02:20:46 0° 67° (ENE) 2,907 10.4 -16.1°
